ARIANE 44LP DEB, 26810

Orbit data source: Space-Track

ARIANE 44LP DEB, 26810 is space debris in HEO originally from a launch on Sun, 11 Dec 1988 UTC launched from the French Guiana (FRGUI). Debris objects in space refer to the collection of defunct objects orbiting the Earth. Examples of debris include non-operational satellites, rocket bodies, and fragments generated from explosions, collisions, or faulty payload assembly.

Loading next visibility...
Identifier
26810, 1988-109M
Orbit
HEO
Country
Flag of FRFR
Related business
Manufacturer
Unknown
Mission
Spacecraft
Bus & Motor
Unknown
Mass
Unknown
Launch date (UTC)
1988-12-11 (37 years ago)
Launch vehicle
Unknown
Launch site
French Guiana (FRGUI)
Object type
Payload
Rocket body
Debris
Shape & HBR
Unknown
Radar Cross Section
Medium (>0.1 m² and <1 m²)

Expand to show TLE details & history
Last TLE update: 18 hours ago

TLE from 18 hours ago
0 ARIANE 44LP DEB
1 26810U 88109M   25250.86282388 -.00000577  00000-0 -23250-1 0  9996
2 26810   6.1772 191.1381 7136729 164.4613 312.5546  2.16366083106330
Epoch: 2025-09-07T20:42Z
TLE epoch observation values (Epoch: 2025-09-07T20:42:27.983Z)
Latitude
3.13145°
Longitude
-76.82605°
Altitude
18,333.19 km
Speed
4.059 km/s
True Right ascension
14h 43m 52s
True Declination
3° 07' 34"
Sunlit
Object was in daylight at epoch
Visualization orbit readout
Latitude
Unknown
Longitude
Unknown
Altitude
Unknown
Speed
Unknown
Apparent Right ascension
Unknown
Apparent Declination
Unknown
Sunlit
N/A
Visualization observer readout
Local Sidereal Time
06:53:37
Azimuth
Unknown
Elevation
Unknown
Doppler factor
Unknown
Orbital elements
Apogee altitude
36,902.105 km
Perigee altitude
853.293 km
Semi-major axis
25,255.836 km
Eccentricity
0.71367
Inclination
6.1772°
RAAN
191.1381°
Arg. of periapsis
164.4613°
True anomaly
225.65601°
Mean anomaly
312.5546°
Eccentric anomaly
271.68177°
Mean motion
0.54075 °/min
Orbital period
665.74 mins
BSTAR
-0.02325
Loading maneuver chart data...
Computing Atmospheric mass density...
Loading historical data...
Loading historical data...
Loading historical data...
Loading historical data...
Loading historical data...
Loading historical data...
Loading historical data...

Documentation

Showing up to 5 results
|